Regional Weather Roundup
Issued by NWS Sioux Falls, SD

Home | Current Version | Previous Version | Graphics & Text | Print | Product List | Glossary On
Versions: 1 2 3 4 5 6 7 8 9 10 11 12 13 14 15 16 17 18 19 20 21 22 23 24 25 26 27 28 29 30 31 32 33 34 35 36 37 38 39 40 41 42 43 44 45 46 47 48 49 50
000
ASUS43 KFSD 291302
RWRFSD

WEATHER ROUNDUP FOR SE SOUTH DAKOTA/SW MINNESOTA/NW IOWA
NATIONAL WEATHER SERVICE SIOUX FALLS SD
800 AM CDT MON MAY 29 2017

NOTE: "FAIR" INDICATES FEW OR NO CLOUDS BELOW 12,000 FEET WITH NO
SIGNIFICANT WEATHER AND OR OBSTRUCTIONS TO VISIBILITY.


SDZ038>040-050-052>070-291400-
SOUTHEAST SOUTH DAKOTA

CITY           SKY/WX    TMP DP  RH WIND       PRES   REMARKS
BROOKINGS      SUNNY     51  45  79 NW15G22   29.92R
CHAMBERLAIN    SUNNY     53  43  69 W13       30.04R
HURON          SUNNY     53  43  68 NW17      29.97R
MADISON        FAIR      50  48  93 NW17      29.95R
MITCHELL       SUNNY     55  44  66 NW13      29.99R
SIOUX FALLS    SUNNY     55  46  71 NW15      29.94S
WINNER         FAIR      52  42  69 NW10      30.07R
YANKTON        SUNNY     56  46  69 NW9       30.00R
$$

MNZ071-072-080-081-089-090-097-098-291400-
SOUTHWEST MINNESOTA

CITY           SKY/WX    TMP DP  RH WIND       PRES   REMARKS
FAIRMONT       MOSUNNY   57  46  66 W13       29.88S
JACKSON        SUNNY     54  45  71 NW8G17    29.90R
LUVERNE        SUNNY     52  43  71 NW16      29.92F
MARSHALL       CLOUDY    54  46  74 W14       29.88R
MONTEVIDEO     CLOUDY    55  46  71 N12G17    29.86R
PIPESTONE      SUNNY     52  43  71 NW12      29.91S
REDWOOD FALLS  CLOUDY    54  46  74 W12       29.85S
TRACY          PTSUNNY   54  47  76 W7G16     29.89R
WINDOM         SUNNY     55  46  71 W13       29.88S
WORTHINGTON    SUNNY     53  46  77 W18       29.91R
$$

IAZ001>003-012>014-020>022-031-032-NEZ013-014-SDZ071-291400-
NORTHWEST IOWA

CITY           SKY/WX    TMP DP  RH WIND       PRES   REMARKS
CHEROKEE       SUNNY     57  48  70 W8        29.95S
DENISON        SUNNY     57  48  72 SW5       29.97S
ESTHERVILLE    SUNNY     55  47  74 NW17      29.90R
LE MARS        SUNNY     57  46  67 NW10      29.98R
ORANGE CITY    SUNNY     55  48  76 NW13      29.95R
SHELDON        SUNNY     55  45  67 NW14      29.92R
SIOUX CITY     SUNNY     58  49  72 W9        29.98R
SPENCER        SUNNY     56  46  69 NW13G21   29.92R
STORM LAKE     SUNNY     55  45  67 W10       29.94S
$$

ABBREVIATIONS USED IN REMARKS
   TC - TEMPERATURE IN CELSIUS
  WCI - WIND CHILL INDEX
   HX - HEAT INDEX
  VSB - VISIBILITY





USA.gov is the U.S. government's official web portal to all federal, state and local government web resources and services.